INTELSAT 902 (IS-902) (26900 NORAD) Tracking and Keplerian Element Data

This shows tracking and keplerian element data for the satellite.

Feedback or suggestion? Click here.




ElementValue
Catalog26900
NameINTELSAT 902 (IS-902)
Epoch Orbit6328
Epoch Day349.46998764
Epoch Year2018
RAAN40.5752
Inclination0.0244
Eccentricity0.0003045
Argument of Perigee236.3595
Mean Anonmoly38.2932
Mean Motion1.00272264
Decay Rate4.6E-07
L11 26900U 01039A 18349.46998764 .00000046 00000-0 00000+0 0 9997
L22 26900 0.0244 40.5752 0003045 236.3595 38.2932 1.00272264 63287

Live tracking and technical data element details for INTELSAT 902 (IS-902) (NORAD 26900). INTELSAT 902 (IS-902) can be tracked NOW for your location showing map with azimuth and elevation plus other details from your city location.

Track the satellite on the map from your city or location and see movement details for azimuth, elevation, latitude, longitude, range, height, and movement on the map or in text.







IsCatalogInMostPopularTable: catalog: 26900, numindb: 79
Update: records affected: 1



GetName: 26900 INTELSAT 902 (IS-902)

Hit Count: updated at: Sun, 16 Dec 2018 09:56:32 GMT